Columbia Airport, CA

3:01 AM PST on December 11, 2019 (GMT -0800)
Columbia Airport

Weather History for KO22 - August, 2019

Change the Weather History Date:

Tuesday, August 20, 2019

  Actual Average (KMOD) Record (KMOD)
Temperature  
Mean Temperature 74 °F -  
Max Temperature 91 °F 88 °F 104 °F (1950)
Min Temperature 57 °F 58 °F 50 °F (1943)
Cooling Degree Days 9    
Growing Degree Days 24 (Base 50)    
Moisture  
Dew Point 51 °F    
Average Humidity 47    
Maximum Humidity 77    
Minimum Humidity 21    
Precipitation  
Precipitation 0.00 in - - ()
Sea Level Pressure  
Sea Level Pressure 30.01 in    
Wind  
Wind Speed 2 mph (SW)    
Max Wind Speed 8 mph    
Max Gust Speed 15 mph    
Visibility 10 miles    
Events      
Averages and records for this station are not official NWS values.
T = Trace of Precipitation, MM = Missing Value Source: NWS Daily Summary

Daily Weather History Graph

Daily Weather History Graph

Search for Another Location

Airport or City:

Astronomy

Aug. 20, 2019 Rise Set
Actual Time 6:20 AM PDT 7:48 PM PDT
Civil Twilight 5:53 AM PDT 8:16 PM PDT
Nautical Twilight 5:19 AM PDT 8:49 PM PDT
Astronomical Twilight 4:44 AM PDT 9:24 PM PDT
Moon 10:44 PM PDT (8/20) 10:59 AM PDT (8/20)
Length of Visible Light 14h 22m
Length of Day
13h 27m
Waning Gibbous, 77% of the Moon is Illuminated
Aug 20
Waning Gibbous
Aug 23
Last Quarter
Aug 30
New
Sep 5
First Quarter
Sep 13
Full

Hourly Weather History & Observations

Time (PDT) Temp. Dew Point Humidity Pressure Visibility Wind Dir Wind Speed Gust Speed Precip Events Conditions
12:15 AM 62.6 °F 50.0 °F 63% 29.98 in 10.0 mi Calm Calm - N/A   Clear
12:35 AM 62.6 °F 50.0 °F 63% 29.98 in 10.0 mi Calm Calm - N/A   Clear
12:55 AM 60.8 °F 50.0 °F 68% 29.99 in 10.0 mi Calm Calm - N/A   Clear
1:15 AM 60.8 °F 50.0 °F 68% 29.98 in 10.0 mi Calm Calm - N/A   Clear
1:35 AM 60.8 °F 50.0 °F 68% 29.99 in 10.0 mi Calm Calm - N/A   Partly Cloudy
1:55 AM 60.8 °F 50.0 °F 68% 29.98 in 10.0 mi Calm Calm - N/A   Clear
2:35 AM 60.8 °F 50.0 °F 68% 29.98 in 10.0 mi Calm Calm - N/A   Partly Cloudy
3:15 AM 60.8 °F 50.0 °F 68% 29.98 in 10.0 mi Calm Calm - N/A   Clear
3:35 AM 59.0 °F 50.0 °F 72% 29.99 in 10.0 mi North - - N/A   Partly Cloudy
3:55 AM 59.0 °F 50.0 °F 72% 29.99 in 10.0 mi Calm Calm - N/A   Clear
4:15 AM 59.0 °F 50.0 °F 72% 29.99 in 10.0 mi Calm Calm - N/A   Clear
4:55 AM 59.0 °F 50.0 °F 72% 29.99 in 10.0 mi Calm Calm - N/A   Clear
5:15 AM 57.2 °F 50.0 °F 77% 29.99 in 10.0 mi North - - N/A   Clear
5:35 AM 57.2 °F 50.0 °F 77% 29.99 in 10.0 mi North - - N/A   Clear
5:55 AM 57.2 °F 50.0 °F 77% 29.99 in 10.0 mi North - - N/A   Clear
6:35 AM 57.2 °F 50.0 °F 77% 30.00 in 10.0 mi North - - N/A   Clear
6:55 AM 57.2 °F 50.0 °F 77% 30.01 in 10.0 mi Calm Calm - N/A   Clear
7:15 AM 59.0 °F 51.8 °F 77% 30.02 in 10.0 mi Calm Calm - N/A   Clear
7:35 AM 60.8 °F 51.8 °F 72% 30.02 in 10.0 mi Calm Calm - N/A   Clear
7:55 AM 66.2 °F 53.6 °F 64% 30.02 in 10.0 mi Calm Calm - N/A   Clear
8:35 AM 73.4 °F 53.6 °F 50% 30.02 in 10.0 mi Calm Calm - N/A   Clear
8:55 AM 75.2 °F 51.8 °F 44% 30.02 in 10.0 mi Calm Calm - N/A   Clear
9:15 AM 77.0 °F 51.8 °F 41% 30.03 in 10.0 mi Calm Calm - N/A   Clear
9:35 AM 78.8 °F 51.8 °F 39% 30.03 in 10.0 mi Calm Calm - N/A   Clear
9:55 AM 80.6 °F 50.0 °F 34% 30.03 in 10.0 mi Calm Calm - N/A   Clear
10:15 AM 82.4 °F 50.0 °F 32% 30.03 in 10.0 mi Calm Calm - N/A   Clear
10:35 AM 82.4 °F 50.0 °F 32% 30.03 in 10.0 mi Calm Calm - N/A   Clear
10:55 AM 84.2 °F 51.8 °F 33% 30.03 in 10.0 mi Variable 4.6 mph - N/A   Clear
11:15 AM 84.2 °F 51.8 °F 33% 30.03 in 9.0 mi Variable 4.6 mph - N/A   Clear
11:35 AM 86.0 °F 51.8 °F 31% 30.04 in 10.0 mi Variable 8.1 mph - N/A   Clear
11:55 AM 86.0 °F 50.0 °F 29% 30.04 in 10.0 mi Variable 5.8 mph - N/A   Clear
12:15 PM 86.0 °F 51.8 °F 31% 30.03 in 10.0 mi Variable 6.9 mph - N/A   Clear
12:35 PM 86.0 °F 51.8 °F 31% 30.03 in 10.0 mi Variable 4.6 mph - N/A   Clear
12:55 PM 87.8 °F 48.2 °F 25% 30.02 in 10.0 mi Variable 5.8 mph - N/A   Clear
1:15 PM 87.8 °F 50.0 °F 27% 30.02 in 10.0 mi Variable 4.6 mph - N/A   Clear
1:35 PM 89.6 °F 48.2 °F 24% 30.02 in 10.0 mi Variable 6.9 mph - N/A   Clear
1:55 PM 89.6 °F 48.2 °F 24% 30.02 in 10.0 mi SW 8.1 mph - N/A   Clear
2:15 PM 91.4 °F 46.4 °F 21% 30.01 in 10.0 mi Variable 5.8 mph 11.5 mph N/A   Clear
2:55 PM 91.4 °F 46.4 °F 21% 30.01 in 10.0 mi Variable 6.9 mph - N/A   Clear
3:15 PM 91.4 °F 46.4 °F 21% 30.00 in 10.0 mi Variable 4.6 mph - N/A   Clear
3:35 PM 91.4 °F 46.4 °F 21% 30.00 in 10.0 mi Variable 5.8 mph - N/A   Clear
3:55 PM 89.6 °F 48.2 °F 24% 30.00 in 10.0 mi Variable 6.9 mph - N/A   Clear
4:15 PM 89.6 °F 48.2 °F 24% 29.99 in 10.0 mi Variable 6.9 mph - N/A   Clear
4:35 PM 89.6 °F 48.2 °F 24% 29.99 in 10.0 mi Variable 8.1 mph 15.0 mph N/A   Clear
4:55 PM 87.8 °F 50.0 °F 27% 30.00 in 10.0 mi Variable 6.9 mph 13.8 mph N/A   Clear
5:15 PM 87.8 °F 48.2 °F 25% 30.00 in 10.0 mi Variable 8.1 mph - N/A   Clear
5:35 PM 86.0 °F 50.0 °F 29% 30.00 in 10.0 mi Variable 6.9 mph - N/A   Clear
5:55 PM 86.0 °F 51.8 °F 31% 30.00 in 10.0 mi Variable 6.9 mph - N/A   Clear
6:15 PM 84.2 °F 51.8 °F 33% 30.00 in 10.0 mi Variable 5.8 mph 11.5 mph N/A   Clear
6:35 PM 82.4 °F 51.8 °F 35% 30.00 in 10.0 mi Variable 5.8 mph - N/A   Clear
6:55 PM 82.4 °F 50.0 °F 32% 29.99 in 10.0 mi Variable 6.9 mph - N/A   Clear
7:15 PM 82.4 °F 51.8 °F 35% 30.00 in 10.0 mi Variable 4.6 mph - N/A   Clear
7:35 PM 80.6 °F 51.8 °F 37% 30.00 in 10.0 mi Variable 4.6 mph - N/A   Clear
7:55 PM 78.8 °F 51.8 °F 39% 30.00 in 10.0 mi Variable 4.6 mph - N/A   Clear
8:15 PM 75.2 °F 51.8 °F 44% 30.00 in 10.0 mi Calm Calm - N/A   Clear
8:35 PM 73.4 °F 53.6 °F 50% 30.00 in 10.0 mi Calm Calm - N/A   Clear
8:55 PM 71.6 °F 53.6 °F 53% 30.00 in 10.0 mi Calm Calm - N/A   Clear
9:35 PM 69.8 °F 53.6 °F 56% 30.00 in 10.0 mi Calm Calm - N/A   Clear
9:55 PM 68.0 °F 53.6 °F 60% 30.01 in 10.0 mi Calm Calm - N/A   Clear
10:35 PM 66.2 °F 53.6 °F 64% 30.01 in 10.0 mi Calm Calm - N/A   Clear
11:15 PM 64.4 °F 53.6 °F 68% 30.01 in 10.0 mi Calm Calm - N/A   Clear
11:35 PM 66.2 °F 53.6 °F 64% 30.01 in 10.0 mi Calm Calm - N/A   Clear
11:55 PM 66.2 °F 53.6 °F 64% 30.00 in 10.0 mi Calm Calm - N/A   Clear